Location: Unspecified
(0.0000°N, 0.0000°E)
Time: 21:34:08
(UTC+02:00)

SWIFT - Visible Passes

Search period start: 29 March 2015 00:00
Search period end: 08 April 2015 01:00
Orbit: 555 x 571 km, 20.6° (Epoch: 29 March)

Date Brightness Start Highest point End Pass type
(mag) Time Alt. Az. Time Alt. Az. Time Alt. Az.
29 Mar 4.6 06:31:25 14° S 06:31:25 14° S 06:32:54 10° SSE visible
30 Mar 4.9 06:29:00 10° S 06:29:00 10° S 06:29:15 10° S visible
04 Apr 4.8 21:38:07 10° N 21:39:05 12° N 21:39:05 12° N visible
05 Apr 4.5 21:34:26 10° NNW 21:36:31 16° N 21:36:31 16° N visible
06 Apr 4.1 21:31:03 10° NNW 21:33:57 21° N 21:33:57 21° N visible
07 Apr 3.5 21:27:48 10° NW 21:31:24 30° NNE 21:31:24 30° NNE visible
